Mackinac Island, MI

2:49 PM EDT on September 26, 2017 (GMT -0400)
Mackinac Island

Weather History for KMCD - April, 2014

Change the Weather History Date:

Sunday, April 27, 2014

  Actual Average Record
Temperature  
Mean Temperature 36 °F -  
Max Temperature 43 °F 51 °F 75 °F (1990)
Min Temperature 29 °F 34 °F 26 °F (2002)
Degree Days  
Heating Degree Days 29    
Moisture  
Dew Point 26 °F    
Average Humidity 68    
Maximum Humidity 86    
Minimum Humidity 45    
Precipitation  
Precipitation 0.00 in - - ()
Sea Level Pressure  
Sea Level Pressure 30.22 in    
Wind  
Wind Speed 8 mph (East)    
Max Wind Speed 14 mph    
Max Gust Speed 22 mph    
Visibility 10 miles    
Events      
Averages and records for this station are not official NWS values.
T = Trace of Precipitation, MM = Missing Value Source: NWS Daily Summary

Daily Weather History Graph

Daily Weather History Graph

Search for Another Location

Airport or City:

Trip Planner

Search our weather history database for the weather conditions in past years. The results will help you decide how hot, cold, wet, or windy it might be!

Date:

Astronomy

Apr. 27, 2014 Rise Set
Actual Time 6:32 AM EDT 8:41 PM EDT
Civil Twilight 5:59 AM EDT 9:13 PM EDT
Nautical Twilight 5:19 AM EDT 9:54 PM EDT
Astronomical Twilight 4:34 AM EDT 10:39 PM EDT
Moon 5:38 AM EDT (4/27) 7:09 PM EDT (4/27)
Length of Visible Light 15h 14m
Length of Day
14h 09m
Waning Crescent, 3% of the Moon is Illuminated
Apr 27
Waning Crescent
Apr 29
New
May 6
First Quarter
May 14
Full
May 21
Last Quarter

Hourly Weather History & Observations

Time (EDT) Temp. Windchill Dew Point Humidity Pressure Visibility Wind Dir Wind Speed Gust Speed Precip Events Conditions
12:16 AM 31.5 °F 24.2 °F 23.7 °F 73% 30.15 in 10.0 mi NE 8.1 mph - N/A   Clear
12:37 AM 31.6 °F 26.0 °F 23.9 °F 73% 30.15 in 10.0 mi NE 5.8 mph - N/A   Clear
12:56 AM 29.8 °F 23.9 °F 23.9 °F 79% 30.16 in 10.0 mi NE 5.8 mph - N/A   Clear
1:16 AM 30.2 °F 24.3 °F 24.8 °F 80% 30.16 in 10.0 mi ENE 5.8 mph - N/A   Clear
1:37 AM 30.0 °F 22.4 °F 25.0 °F 82% 30.17 in 10.0 mi ENE 8.1 mph - N/A   Clear
1:56 AM 30.7 °F 24.1 °F 25.2 °F 80% 30.18 in 10.0 mi East 6.9 mph - N/A   Clear
2:16 AM 31.5 °F 24.9 °F 25.2 °F 78% 30.19 in 10.0 mi East 6.9 mph - N/A   Clear
2:36 AM 31.6 °F 25.1 °F 25.3 °F 78% 30.20 in 10.0 mi East 6.9 mph - N/A   Clear
2:56 AM 30.9 °F 24.3 °F 25.3 °F 80% 30.20 in 10.0 mi East 6.9 mph - N/A   Clear
3:17 AM 31.3 °F 24.7 °F 25.9 °F 80% 30.20 in 10.0 mi East 6.9 mph - N/A   Clear
3:36 AM 31.8 °F 26.2 °F 26.4 °F 80% 30.20 in 10.0 mi ENE 5.8 mph - N/A   Clear
3:56 AM 30.9 °F 25.2 °F 26.4 °F 83% 30.20 in 10.0 mi NE 5.8 mph - N/A   Clear
4:17 AM 30.4 °F 24.5 °F 26.2 °F 85% 30.20 in 10.0 mi NE 5.8 mph - N/A   Clear
4:36 AM 30.9 °F 25.2 °F 26.4 °F 83% 30.21 in 10.0 mi NE 5.8 mph - N/A   Clear
4:56 AM 30.0 °F 23.2 °F 26.2 °F 86% 30.21 in 10.0 mi ENE 6.9 mph - N/A   Clear
5:17 AM 30.2 °F 23.4 °F 25.5 °F 83% 30.22 in 10.0 mi NE 6.9 mph - N/A   Clear
5:36 AM 30.0 °F 24.1 °F 25.3 °F 83% 30.22 in 10.0 mi ENE 5.8 mph - N/A   Clear
5:56 AM 30.2 °F 22.6 °F 25.7 °F 83% 30.22 in 10.0 mi ENE 8.1 mph - N/A   Clear
6:16 AM 30.6 °F 23.1 °F 25.3 °F 81% 30.22 in 10.0 mi ENE 8.1 mph - N/A   Clear
6:36 AM 31.1 °F 24.5 °F 25.0 °F 78% 30.22 in 10.0 mi ENE 6.9 mph - N/A   Clear
6:57 AM 31.8 °F 26.2 °F 25.5 °F 78% 30.23 in 10.0 mi ENE 5.8 mph - N/A   Clear
7:16 AM 32.0 °F 25.6 °F 25.3 °F 76% 30.23 in 10.0 mi East 6.9 mph - N/A   Clear
7:36 AM 33.1 °F 26.9 °F 25.5 °F 74% 30.23 in 10.0 mi ENE 6.9 mph - N/A   Clear
7:57 AM 33.3 °F 27.1 °F 25.2 °F 72% 30.23 in 10.0 mi ENE 6.9 mph - N/A   Clear
8:16 AM 33.8 °F 27.0 °F 25.5 °F 72% 30.24 in 10.0 mi East 8.1 mph - N/A   Clear
8:36 AM 34.0 °F 28.0 °F 25.9 °F 72% 30.25 in 10.0 mi East 6.9 mph - N/A   Clear
8:57 AM 34.5 °F 27.3 °F 25.7 °F 70% 30.25 in 10.0 mi East 9.2 mph - N/A   Clear
9:16 AM 35.1 °F 32.2 °F 25.9 °F 69% 30.25 in 10.0 mi East 3.5 mph - N/A   Clear
9:37 AM 35.2 °F 28.8 °F 26.4 °F 70% 30.25 in 10.0 mi East 8.1 mph 17.3 mph N/A   Clear
9:57 AM 35.6 °F 30.7 °F 26.6 °F 70% 30.25 in 10.0 mi East 5.8 mph 17.3 mph N/A   Clear
10:16 AM 36.0 °F 28.0 °F 26.4 °F 68% 30.26 in 10.0 mi East 11.5 mph 18.4 mph N/A   Clear
10:36 AM 36.7 °F 30.5 °F 26.6 °F 67% 30.26 in 10.0 mi East 8.1 mph 17.3 mph N/A   Clear
10:57 AM 36.5 °F 29.2 °F 26.1 °F 66% 30.26 in 10.0 mi East 10.4 mph 18.4 mph N/A   Clear
11:16 AM 37.2 °F 28.7 °F 25.3 °F 62% 30.26 in 10.0 mi East 13.8 mph 21.9 mph N/A   Clear
11:37 AM 37.9 °F 32.1 °F 25.5 °F 61% 30.26 in 10.0 mi East 8.1 mph 17.3 mph N/A   Clear
11:56 AM 37.8 °F 32.5 °F 25.3 °F 61% 30.26 in 10.0 mi East 6.9 mph 20.7 mph N/A   Clear
12:16 PM 38.7 °F 31.4 °F 26.6 °F 62% 30.25 in 10.0 mi East 11.5 mph 18.4 mph N/A   Clear
12:37 PM 39.0 °F 32.3 °F 25.2 °F 58% 30.25 in 10.0 mi East 10.4 mph 18.4 mph N/A   Clear
12:56 PM 40.3 °F 33.4 °F 25.3 °F 55% 30.25 in 10.0 mi East 11.5 mph 19.6 mph N/A   Clear
1:17 PM 40.6 °F 34.3 °F 25.3 °F 54% 30.23 in 10.0 mi East 10.4 mph 18.4 mph N/A   Clear
1:36 PM 41.2 °F 34.5 °F 25.9 °F 55% 30.23 in 10.0 mi East 11.5 mph 19.6 mph N/A   Clear
1:56 PM 41.2 °F 35.5 °F 24.8 °F 52% 30.24 in 10.0 mi East 9.2 mph 16.1 mph N/A   Clear
2:17 PM 41.9 °F 37.5 °F 24.4 °F 50% 30.23 in 10.0 mi East 6.9 mph 21.9 mph N/A   Clear
2:36 PM 41.5 °F 34.2 °F 23.5 °F 49% 30.23 in 10.0 mi ESE 13.8 mph 21.9 mph N/A   Clear
2:56 PM 41.7 °F 35.6 °F 24.4 °F 50% 30.23 in 10.0 mi East 10.4 mph 19.6 mph N/A   Clear
3:17 PM 41.7 °F 36.7 °F 24.6 °F 51% 30.22 in 10.0 mi East 8.1 mph - N/A   Clear
3:36 PM 41.2 °F 35.0 °F 25.5 °F 54% 30.22 in 10.0 mi ESE 10.4 mph 18.4 mph N/A   Clear
4:16 PM 43.3 °F 37.2 °F 25.9 °F 50% 30.21 in 10.0 mi ESE 11.5 mph 20.7 mph N/A   Clear
4:57 PM 42.6 °F 36.8 °F 26.1 °F 52% 30.20 in 10.0 mi East 10.4 mph 17.3 mph N/A   Clear
5:16 PM 42.6 °F 37.2 °F 26.1 °F 52% 30.19 in 10.0 mi ESE 9.2 mph - N/A   Clear
5:37 PM 43.5 °F 38.3 °F 25.5 °F 49% 30.18 in 10.0 mi ESE 9.2 mph 17.3 mph N/A   Clear
5:57 PM 43.7 °F 38.1 °F 24.6 °F 47% 30.19 in 10.0 mi ESE 10.4 mph 21.9 mph N/A   Clear
6:16 PM 43.9 °F 39.3 °F 23.7 °F 45% 30.19 in 10.0 mi ESE 8.1 mph - N/A   Clear
6:37 PM 43.7 °F 38.6 °F 23.9 °F 46% 30.18 in 10.0 mi ESE 9.2 mph - N/A   Clear
6:57 PM 43.0 °F 38.2 °F 24.6 °F 48% 30.18 in 10.0 mi ESE 8.1 mph - N/A   Clear
7:16 PM 42.1 °F 39.2 °F 25.3 °F 52% 30.18 in 10.0 mi East 4.6 mph - N/A   Clear
7:37 PM 40.6 °F 37.5 °F 26.6 °F 57% 30.17 in 10.0 mi ESE 4.6 mph - N/A   Clear
7:57 PM 39.9 °F 35.8 °F 26.8 °F 59% 30.18 in 10.0 mi East 5.8 mph - N/A   Clear
8:16 PM 38.5 °F 33.4 °F 27.0 °F 63% 30.19 in 10.0 mi ESE 6.9 mph - N/A   Clear
8:37 PM 38.3 °F 33.2 °F 26.4 °F 62% 30.20 in 10.0 mi ESE 6.9 mph - N/A   Clear
8:57 PM 36.3 °F 30.8 °F 27.5 °F 70% 30.22 in 10.0 mi ESE 6.9 mph - N/A   Clear
9:16 PM 35.1 °F 30.1 °F 28.2 °F 76% 30.22 in 10.0 mi East 5.8 mph - N/A   Clear
9:37 PM 34.9 °F 29.0 °F 28.2 °F 77% 30.23 in 10.0 mi East 6.9 mph - N/A   Clear
9:57 PM 34.9 °F 30.8 °F 28.4 °F 77% 30.25 in 10.0 mi East 4.6 mph - N/A   Clear
10:16 PM 34.5 °F 28.6 °F 28.8 °F 79% 30.24 in 10.0 mi East 6.9 mph - N/A   Clear
10:37 PM 34.7 °F 28.8 °F 28.9 °F 79% 30.24 in 10.0 mi East 6.9 mph - N/A   Clear
10:57 PM 35.6 °F 30.7 °F 29.1 °F 77% 30.25 in 10.0 mi ESE 5.8 mph - N/A   Clear
11:16 PM 35.6 °F 28.6 °F 29.7 °F 79% 30.23 in 10.0 mi East 9.2 mph - N/A   Clear
11:37 PM 35.6 °F 28.6 °F 29.7 °F 79% 30.23 in 10.0 mi East 9.2 mph - N/A   Clear
11:56 PM 35.6 °F 27.5 °F 30.0 °F 80% 30.22 in 10.0 mi East 11.5 mph - N/A   Clear